Location: Lecco
(45.8566°N, 9.3977°E)
Time: 08:40:48
(UTC+02:00)

Altair - Pass Details

Date: 21 August 2020
Orbit: 1501 x 1682 km, 47.2° (Epoch: 25 September)

Event Time Altitude Azimuth Distance (km) Brightness Sun altitude
Rises 00:24:13 0° 216° (SW) 4,888 - -30.5°
Reaches altitude 10° 00:27:33 10° 211° (SSW) 3,884 - -30.6°
Maximum altitude 00:36:49 47° 142° (SE) 2,048 - -31.1°
Exits shadow 00:39:15 40° 107° (ESE) 2,215 8.0 -31.2°
Drops below altitude 10° 00:45:46 10° 73° (ENE) 3,764 9.6 -31.4°
Sets 00:48:55 0° 68° (ENE) 4,726 10.2 -31.5°
